Weather History for Deering, AK

Change the Weather History Date:

Tuesday, February 12, 2013

  Actual Average (PAOT) Record (PAOT)
Temperature  
Mean Temperature 2 °F -1 °F  
Max Temperature 8 °F - 37 °F (1980)
Min Temperature -5 °F -8 °F -48 °F (1964)
Degree Days  
Heating Degree Days 64 66  
Month to date heating degree days 801  
Since 1 July heating degree days 9200  
Cooling Degree Days 0    
Month to date cooling degree days  
Year to date cooling degree days  
Moisture  
Dew Point -4 °F    
Average Humidity 78    
Maximum Humidity 85    
Minimum Humidity 65    
Precipitation  
Precipitation 0.00 in 0.03 in 0.21 in (2009)
Month to date precipitation 0.26  
Year to date precipitation 0.88  
Snow  
Snow 0.00 in 0.30 in 2.30 in (2009)
Month to date snowfall 3.8  
Since 1 July snowfall 41.8  
Snow Depth -    
Sea Level Pressure  
Sea Level Pressure 29.64 in    
Wind  
Wind Speed 4 mph (SSW)    
Max Wind Speed 9 mph    
Max Gust Speed -    
Visibility 8 miles    
Events Snow    
T = Trace of Precipitation, MM = Missing Value Source: NWS Daily Summary

Daily Weather History Graph

Daily Weather History Graph

Search for Another Location

Airport:

Trip Planner

Search our weather history database for the weather conditions in past years. The results will help you decide how hot, cold, wet, or windy it might be!

Date:

Astronomy

Feb. 12, 2013 Rise Set
Actual Time 10:05 AM AKST 6:06 PM AKST
Civil Twilight 9:08 AM AKST 7:02 PM AKST
Nautical Twilight 8:08 AM AKST 8:03 PM AKST
Astronomical Twilight 7:09 AM AKST 9:03 PM AKST
Moon 9:38 AM AKST (2/12) 11:05 PM AKST (2/12)
Length of Visible Light 9h 54m
Length of Day
8h 00m
Waxing Crescent, 8% of the Moon is Illuminated
Feb 12
Waxing Crescent
Feb 17
First Quarter
Feb 25
Full
Mar 4
Last Quarter
Mar 11
New

Hourly Weather History & Observations

Time (AKST) Temp. Windchill Dew Point Humidity Pressure Visibility Wind Dir Wind Speed Gust Speed Precip Events Conditions
12:10 AM -5.8 °F -14.5 °F -11.2 °F 77% 29.63 in 10.0 mi NNE 3.5 mph - N/A   Scattered Clouds
12:53 AM -5.1 °F -17.6 °F -11.0 °F 76% 29.64 in 10.0 mi ENE 5.8 mph - N/A   Overcast
1:53 AM -4.0 °F -20.2 °F -13.0 °F 65% 29.65 in 10.0 mi ENE 9.2 mph - N/A   Partly Cloudy
3:53 AM -4.0 °F -14.6 °F -11.0 °F 72% 29.67 in 10.0 mi ENE 4.6 mph - N/A   Overcast
4:53 AM -0.9 °F - -9.0 °F 69% 29.68 in 10.0 mi Calm Calm - N/A   Overcast
5:53 AM -0.9 °F -12.7 °F -8.0 °F 72% 29.67 in 10.0 mi ENE 5.8 mph - N/A   Overcast
6:53 AM -2.0 °F - -8.0 °F 76% 29.67 in 10.0 mi Calm Calm - N/A   Overcast
7:53 AM -2.0 °F -13.9 °F -7.1 °F 79% 29.66 in 10.0 mi ENE 5.8 mph - N/A   Overcast
8:53 AM -0.9 °F -8.9 °F -7.1 °F 75% 29.66 in 10.0 mi NE 3.5 mph - N/A   Overcast
9:53 AM -2.0 °F - -7.1 °F 79% 29.66 in 5.0 mi Calm Calm - 0.00 in Snow Light Snow
10:30 AM -2.2 °F -12.5 °F -7.6 °F 78% 29.65 in 1.8 mi SSW 4.6 mph - 0.00 in Snow Light Snow
10:41 AM -2.2 °F -10.4 °F -7.6 °F 78% 29.65 in 2.5 mi SSW 3.5 mph - 0.00 in Snow Light Snow
11:36 AM -0.4 °F -10.4 °F -5.8 °F 78% 29.65 in 2.5 mi SW 4.6 mph - N/A Snow Light Snow
11:42 AM -0.4 °F -8.3 °F -5.8 °F 78% 29.65 in 1.8 mi SW 3.5 mph - N/A Snow Light Snow
11:53 AM -0.9 °F - -5.1 °F 83% 29.65 in 1.5 mi Calm Calm - N/A Snow Light Snow
12:08 PM -0.4 °F -10.4 °F -5.8 °F 78% 29.65 in 2.0 mi SSW 4.6 mph - 0.00 in Snow Light Snow
1:18 PM 1.4 °F -6.2 °F -2.2 °F 85% 29.64 in - SSW 3.5 mph - N/A   Unknown
1:53 PM 1.9 °F -9.2 °F -2.9 °F 80% 29.64 in 9.0 mi SW 5.8 mph - N/A   Overcast
2:17 PM 1.4 °F -9.9 °F -2.2 °F 85% 29.63 in 6.0 mi SW 5.8 mph - 0.00 in Snow Light Snow
2:29 PM 1.4 °F -11.3 °F -2.2 °F 85% 29.63 in 1.8 mi SSW 6.9 mph - 0.00 in Snow Light Snow
2:40 PM 1.4 °F -11.3 °F -2.2 °F 85% 29.62 in 2.0 mi SSW 6.9 mph - 0.00 in Snow Light Snow
2:53 PM 1.9 °F -10.6 °F -2.0 °F 83% 29.63 in 1.2 mi SSW 6.9 mph - 0.00 in Snow Light Snow
3:14 PM 3.2 °F -6.2 °F -2.2 °F 78% 29.62 in 3.0 mi SSW 4.6 mph - 0.00 in Snow Light Snow
3:31 PM 1.4 °F -8.3 °F -2.2 °F 85% 29.62 in 9.0 mi SW 4.6 mph - 0.00 in   Overcast
3:53 PM 1.9 °F -9.2 °F -2.9 °F 80% 29.62 in 10.0 mi SW 5.8 mph - 0.00 in   Mostly Cloudy
4:39 PM 1.4 °F -9.9 °F -2.2 °F 85% 29.60 in 10.0 mi SSW 5.8 mph - N/A   Overcast
4:53 PM 3.0 °F -9.3 °F -2.0 °F 80% 29.61 in 10.0 mi SSW 6.9 mph - N/A   Overcast
5:53 PM 3.9 °F -6.9 °F -0.9 °F 80% 29.61 in 10.0 mi SW 5.8 mph - N/A   Overcast
6:53 PM 5.0 °F -4.1 °F -0.9 °F 76% 29.62 in 10.0 mi SW 4.6 mph - N/A   Overcast
7:49 PM 6.8 °F - -0.4 °F 72% 29.61 in 10.0 mi Calm Calm - N/A   Overcast
7:53 PM 6.1 °F - -0.0 °F 76% 29.62 in 10.0 mi Calm Calm - N/A   Overcast
8:46 PM 5.0 °F - -0.4 °F 78% 29.62 in 10.0 mi Calm Calm - N/A   Overcast
8:53 PM 6.1 °F - -0.0 °F 76% 29.62 in 10.0 mi Calm Calm - N/A   Overcast
9:33 PM 6.8 °F - 1.4 °F 79% 29.62 in 10.0 mi Calm Calm - N/A   Overcast
9:53 PM 7.0 °F - 1.9 °F 80% 29.63 in 10.0 mi Calm Calm - N/A   Overcast
10:53 PM 8.1 °F - 1.9 °F 76% 29.63 in 10.0 mi Calm Calm - N/A   Overcast
11:53 PM 8.1 °F 1.4 °F 1.9 °F 76% 29.63 in 10.0 mi North 3.5 mph - N/A   Overcast